[[{"header":{"parameterUnit":"m.s-1","parameterCategory":1,"la1":30.2991,"la2":30.254,"lo1":-89.0895,"lo2":-89.0444,"dy":0.0017,"dx":0.0017,"nx":28,"ny":28,"refTime":"2025-01-13T03:00:00:Z","depth":0,"parameterNumber":2,"parameterNumberName":"U-component_of_WINDS"},"data":[0,0,0,0,0,0,0,0,0,0,0,0,0,0,0,0,0,0,0,0,0,0,0,0,0,0,0,0,0,0,0,0,0,0,0,0,0,0,0,0,0,0,0,0,0,0,0,0,0,0,0,0,0,0,0,0,0,0,-1.6137,-1.6137,0,-1.616,-1.6161,-1.6161,-1.6094,-1.6091,-1.6089,-1.6087,-1.6114,-1.6116,-1.6119,0,0,0,0,0,0,0,0,0,0,0,0,0,-1.6035,-1.6037,-1.6137,-1.6137,-1.6137,-1.616,-1.6161,-1.6161,-1.6094,-1.6091,-1.6089,-1.6086,-1.6113,-1.6116,-1.6119,0,0,0,0,0,0,0,0,0,0,0,0,0,-1.6071,-1.6038,-1.6137,-1.6107,-1.6104,-1.616,-1.6161,-1.6161,-1.6094,-1.6091,-1.6088,-1.6085,-1.6112,-1.6116,-1.612,-1.6207,0,0,-1.6132,-1.6133,0,0,0,0,0,0,0,0,-1.6069,-1.6075,-1.6111,-1.6109,-1.6106,-1.6121,-1.6134,-1.6176,-1.6095,-1.6098,-1.6087,-1.6084,-1.6119,-1.6122,-1.6133,-1.6208,-1.6209,-1.6132,-1.6134,-1.6136,-1.6137,0,0,0,0,0,0,0,-1.6066,-1.6073,-1.6146,-1.6111,-1.6109,-1.6092,-1.6094,-1.6142,-1.6126,-1.6098,-1.6093,-1.6096,-1.6117,-1.613,-1.6133,-1.6209,-1.6132,-1.6135,-1.6138,-1.6139,-1.6356,-1.6359,0,0,0,0,0,0,-1.6068,-1.6072,-1.6145,-1.6147,-1.6079,-1.6097,-1.6098,-1.6119,-1.6125,-1.6123,-1.6099,-1.6093,-1.6124,-1.6129,-1.6134,-1.6237,-1.6136,-1.614,-1.6142,-1.6353,-1.6357,-1.636,0,0,0,0,0,0,-1.6066,-1.6075,-1.6144,-1.6108,-1.6115,-1.6102,-1.6126,-1.6121,-1.6134,-1.6126,-1.6123,-1.6115,-1.6122,-1.6129,-1.6189,-1.6237,-1.6142,-1.6145,-1.6349,-1.6354,-1.6358,-1.6442,0,0,0,0,0,0,-1.6063,-1.6075,-1.6107,-1.6109,-1.6118,-1.6199,-1.6128,-1.6124,-1.6141,-1.6133,-1.614,-1.6138,-1.612,-1.6183,-1.6193,-1.624,-1.6148,-1.6344,-1.6351,-1.6357,-1.6435,-1.645,-1.6462,0,0,0,0,0,-1.606,-1.6131,-1.6109,-1.6119,-1.6158,-1.6202,-1.6207,-1.6184,-1.6145,-1.6178,-1.6173,-1.6138,-1.6229,-1.619,-1.62,-1.625,-1.6341,-1.6349,-1.6356,-1.6429,-1.6447,-1.6461,0,0,0,0,0,0,-1.6136,-1.613,-1.6107,-1.618,-1.6192,-1.619,-1.6231,-1.6203,-1.6226,-1.6219,-1.6189,-1.6191,-1.6257,-1.6259,-1.6215,-1.6334,-1.6279,-1.6289,-1.6331,-1.6347,-1.636,-1.6359,-1.6152,0,0,0,0,0,-1.6161,-1.6196,-1.6189,-1.6255,-1.6262,-1.6246,-1.6264,-1.6245,-1.6256,-1.6261,-1.626,-1.6272,-1.6304,-1.6325,-1.6353,-1.6434,-1.6435,-1.6473,-1.6486,-1.6497,-1.6507,-1.655,-1.6567,-1.6385,-1.6385,-1.6385,0,0,-1.6214,-1.6215,-1.6239,-1.627,-1.6277,-1.6315,-1.625,-1.6293,-1.6321,-1.6267,-1.6324,-1.6324,-1.6336,-1.6407,-1.6438,-1.641,-1.6557,-1.6507,-1.6516,-1.652,-1.6559,-1.6577,-1.6592,-1.639,-1.6389,-1.6389,0,0,-1.633,-1.6334,-1.6389,-1.6397,-1.6407,-1.6396,-1.6409,-1.6411,-1.6409,-1.6465,-1.6426,-1.6458,-1.6513,-1.6523,-1.6535,-1.6653,-1.6623,-1.6663,-1.6733,-1.6776,-1.679,-1.6802,-1.6845,-1.6861,-1.6672,-1.6672,-1.6672,0,-1.6395,-1.6449,-1.6421,-1.6466,-1.6481,-1.6433,-1.6489,-1.6498,-1.6518,-1.6529,-1.6497,-1.6564,-1.6569,-1.6642,-1.667,-1.6681,-1.6696,-1.6663,-1.679,-1.6802,-1.6814,-1.6854,-1.687,-1.6677,-1.6677,-1.6676,-1.6676,0,-1.6529,-1.6567,-1.661,-1.663,-1.6649,-1.6699,-1.6679,-1.6702,-1.6681,-1.6673,-1.6731,-1.6734,-1.6762,-1.6778,-1.6758,-1.6848,-1.683,-1.6795,-1.6739,-1.6836,-1.6874,-1.6889,-1.6684,-1.6683,-1.6681,-1.668,0,0,-1.6696,-1.6697,-1.6714,-1.6722,-1.6729,-1.6759,-1.6806,-1.6833,-1.6854,-1.6868,-1.6908,-1.6954,-1.6921,-1.6935,-1.6916,-1.6953,-1.7046,-1.6912,-1.6912,-1.6938,-1.7146,-1.7174,-1.7193,-1.7025,-1.7028,-1.703,-1.7146,0,-1.6811,-1.6892,-1.6868,-1.695,-1.6986,-1.6939,-1.6981,-1.699,-1.6983,-1.7012,-1.7004,-1.7038,-1.6991,-1.7,-1.7034,-1.7028,-1.7088,-1.7019,-1.7063,-1.7065,-1.7063,-1.7212,-1.7242,-1.7351,-1.716,-1.7163,-1.7164,0,-1.6956,-1.6976,-1.7062,-1.7063,-1.7076,-1.7114,-1.7136,-1.7164,-1.7174,-1.7166,-1.7181,-1.7153,-1.72,-1.7143,-1.7208,-1.7161,-1.7177,-1.7177,-1.718,-1.7185,-1.7122,-1.7223,-1.7385,-1.7402,-1.7187,-1.7185,-1.7184,0,-1.7071,-1.7119,-1.7176,-1.7184,-1.7186,-1.7214,-1.7216,-1.7222,-1.7239,-1.7258,-1.727,-1.7294,-1.7308,-1.7328,-1.7308,-1.7268,-1.7376,-1.7317,-1.7372,-1.7372,-1.7398,-1.7397,-1.7568,-1.7406,-1.7406,-1.7406,-1.7405,0,-1.7203,-1.7258,-1.7228,-1.7263,-1.7323,-1.7294,-1.7354,-1.7351,-1.7356,-1.739,-1.7351,-1.7384,-1.7355,-1.7385,-1.7369,-1.7426,-1.7432,-1.7428,-1.7423,-1.7432,-1.7433,-1.7444,-1.7437,-1.741,-1.7409,-1.7408,-1.7407,0,-1.7343,-1.7324,-1.7384,-1.738,-1.7381,-1.7425,-1.7422,-1.7455,-1.7444,-1.7488,-1.7497,-1.7481,-1.7514,-1.7495,-1.753,-1.7519,-1.7593,-1.7577,-1.759,-1.7587,-1.7643,-1.7639,-1.7828,-1.7851,-1.7673,-1.7675,-1.7677,0,-1.7429,-1.747,-1.747,-1.749,-1.7495,-1.7527,-1.7544,-1.7516,-1.7536,-1.7549,-1.758,-1.761,-1.7633,-1.7689,-1.7681,-1.7707,-1.7692,-1.7757,-1.7696,-1.7704,-1.7695,-1.7693,-1.7698,-1.777,-1.7772,-1.7774,-1.7775,0,-1.7585,-1.7573,-1.7599,-1.7622,-1.7644,-1.766,-1.7674,-1.7693,-1.7664,-1.7688,-1.7722,-1.774,-1.7774,-1.7805,-1.7827,-1.7829,-1.7798,-1.7793,-1.7808,-1.7819,-1.7825,-1.7823,-1.7625,-1.779,-1.7788,-1.7787,-1.7787,-1.7786,-1.7701,-1.7735,-1.7741,-1.7771,-1.7778,-1.7791,-1.7822,-1.7814,-1.7842,-1.7868,-1.7849,-1.7889,-1.7896,-1.7922,-1.7928,-1.7959,-1.7933,-1.7954,-1.7959,-1.7965,-1.7974,-1.7818,-1.7963,-1.7962,-1.7962,-1.7962,-1.7961,0,-1.7856,-1.7857,-1.7885,-1.7904,-1.7928,-1.7895,-1.7908,-1.793,-1.7965,-1.7974,-1.7997,-1.8035,-1.8064,-1.8057,-1.8083,-1.8109,-1.8096,-1.8117,-1.8116,-1.8117,-1.7995,-1.798,-1.8128,-1.8128,-1.8128,-1.8128,-1.8128,-1.8128,-1.794,-1.7996,-1.7985,-1.8044,-1.8044,-1.8082,-1.8093,-1.8104,-1.8111,-1.8156,-1.8179,-1.8174,-1.8177,-1.8202,-1.8227,-1.8224,-1.8237,-1.8264,-1.8256,-1.8142,-1.8126,-1.811,-1.8097,-1.8266,-1.8267,-1.8376,-1.8377,-1.8378]},{"header":{"parameterUnit":"m.s-1","parameterCategory":1,"la1":30.2991,"la2":30.254,"lo1":-89.0895,"lo2":-89.0444,"dy":0.0017,"dx":0.0017,"nx":28,"ny":28,"refTime":"2025-01-13T03:00:00:Z","depth":0,"parameterNumber":3,"parameterNumberName":"V-component_of_WINDS"},"data":[0,0,0,0,0,0,0,0,0,0,0,0,0,0,0,0,0,0,0,0,0,0,0,0,0,0,0,0,0,0,0,0,0,0,0,0,0,0,0,0,0,0,0,0,0,0,0,0,0,0,0,0,0,0,0,0,0,0,-5.6711,-5.6712,0,-5.6806,-5.6807,-5.6809,-5.6717,-5.6713,-5.6709,-5.6706,-5.6801,-5.6807,-5.6813,0,0,0,0,0,0,0,0,0,0,0,0,0,-5.6446,-5.6451,-5.6711,-5.6712,-5.6713,-5.6806,-5.6808,-5.6809,-5.6717,-5.6713,-5.6709,-5.6704,-5.6799,-5.6806,-5.6813,0,0,0,0,0,0,0,0,0,0,0,0,0,-5.6553,-5.6453,-5.6711,-5.6679,-5.6677,-5.6806,-5.6808,-5.6809,-5.6718,-5.6713,-5.6707,-5.6702,-5.6797,-5.6805,-5.6814,-5.6978,0,0,-5.6841,-5.6845,0,0,0,0,0,0,0,0,-5.6547,-5.6563,-5.6682,-5.6681,-5.6679,-5.6744,-5.6749,-5.6866,-5.672,-5.6703,-5.6706,-5.67,-5.6786,-5.6796,-5.6825,-5.6983,-5.6987,-5.6842,-5.6847,-5.6851,-5.6854,0,0,0,0,0,0,0,-5.654,-5.6558,-5.6748,-5.6684,-5.6682,-5.6659,-5.6668,-5.6771,-5.6774,-5.6704,-5.6697,-5.671,-5.6784,-5.6817,-5.6827,-5.6988,-5.6842,-5.685,-5.6855,-5.6859,-5.7284,-5.729,0,0,0,0,0,0,-5.6536,-5.6553,-5.6745,-5.6751,-5.6599,-5.6668,-5.6678,-5.6729,-5.6772,-5.6774,-5.6714,-5.6705,-5.6805,-5.6817,-5.683,-5.7025,-5.6851,-5.6859,-5.6865,-5.7278,-5.7285,-5.7292,0,0,0,0,0,0,-5.6531,-5.6554,-5.6742,-5.665,-5.6672,-5.6678,-5.6736,-5.6734,-5.6766,-5.6781,-5.678,-5.6748,-5.6801,-5.6817,-5.6942,-5.7027,-5.6863,-5.6871,-5.7271,-5.728,-5.7289,-5.7417,0,0,0,0,0,0,-5.6524,-5.6553,-5.6616,-5.6653,-5.6678,-5.6854,-5.6741,-5.6739,-5.6782,-5.6771,-5.6812,-5.6813,-5.6798,-5.6929,-5.6951,-5.7037,-5.6878,-5.7264,-5.7275,-5.7286,-5.7406,-5.743,-5.745,0,0,0,0,0,-5.6515,-5.6648,-5.662,-5.6644,-5.6757,-5.6859,-5.6873,-5.6854,-5.6789,-5.6853,-5.6862,-5.6812,-5.7014,-5.6943,-5.6966,-5.7056,-5.7258,-5.7272,-5.7285,-5.7396,-5.7425,-5.745,0,0,0,0,0,0,-5.6621,-5.6652,-5.6622,-5.6771,-5.6813,-5.6843,-5.6923,-5.6885,-5.6946,-5.6933,-5.6905,-5.6914,-5.7047,-5.7063,-5.6983,-5.7217,-5.7126,-5.7144,-5.7202,-5.723,-5.7251,-5.7245,-5.6886,0,0,0,0,0,-5.6662,-5.6743,-5.6765,-5.6895,-5.6918,-5.6917,-5.696,-5.6942,-5.6984,-5.7001,-5.7019,-5.7061,-5.7133,-5.7182,-5.725,-5.7407,-5.7414,-5.748,-5.7502,-5.752,-5.7537,-5.7621,-5.7651,-5.7336,-5.7336,-5.7336,0,0,-5.6748,-5.6775,-5.6827,-5.6917,-5.6948,-5.7031,-5.6933,-5.7025,-5.7087,-5.7014,-5.7134,-5.7149,-5.7193,-5.7335,-5.7398,-5.7353,-5.7626,-5.7538,-5.7552,-5.7559,-5.7638,-5.7668,-5.7695,-5.7345,-5.7344,-5.7342,0,0,-5.6946,-5.6975,-5.7086,-5.7119,-5.7166,-5.7165,-5.7191,-5.7227,-5.7235,-5.7354,-5.7302,-5.7373,-5.7499,-5.7534,-5.7567,-5.7778,-5.7735,-5.7801,-5.7918,-5.8,-5.8025,-5.8047,-5.8123,-5.815,-5.7817,-5.7818,-5.7818,0,-5.7046,-5.7171,-5.7148,-5.7245,-5.7286,-5.7225,-5.7337,-5.7369,-5.7436,-5.7465,-5.7413,-5.7571,-5.7596,-5.7745,-5.7797,-5.7826,-5.7855,-5.7797,-5.8024,-5.8045,-5.8065,-5.8137,-5.8166,-5.7825,-5.7825,-5.7824,-5.7823,0,-5.7292,-5.738,-5.7463,-5.7531,-5.7581,-5.7685,-5.7676,-5.773,-5.7706,-5.771,-5.7831,-5.786,-5.7933,-5.7966,-5.7944,-5.8112,-5.8082,-5.8028,-5.7936,-5.8104,-5.8171,-5.8198,-5.7837,-5.7834,-5.7831,-5.783,0,0,-5.7562,-5.7615,-5.7646,-5.7676,-5.7723,-5.779,-5.789,-5.7962,-5.8009,-5.8056,-5.814,-5.8248,-5.8197,-5.8236,-5.8216,-5.8289,-5.8454,-5.8225,-5.8225,-5.8267,-5.8641,-5.8683,-5.8716,-5.8425,-5.843,-5.8434,-5.8638,0,-5.7763,-5.7939,-5.7921,-5.8088,-5.8168,-5.8111,-5.8198,-5.8236,-5.8242,-5.831,-5.8315,-5.8392,-5.832,-5.8342,-5.8411,-5.842,-5.8529,-5.8404,-5.8502,-5.8506,-5.8494,-5.875,-5.8795,-5.8986,-5.8664,-5.8668,-5.8671,0,-5.8021,-5.8079,-5.8255,-5.829,-5.8323,-5.8403,-5.8467,-5.8533,-5.8574,-5.8573,-5.8616,-5.8584,-5.8683,-5.8588,-5.8725,-5.8641,-5.8679,-5.8689,-5.8696,-5.8705,-5.86,-5.8768,-5.9047,-5.9076,-5.8712,-5.8709,-5.8706,0,-5.8201,-5.8323,-5.8444,-5.8471,-5.8515,-5.8572,-5.8593,-5.8629,-5.8673,-5.8729,-5.8757,-5.8823,-5.8859,-5.8911,-5.8897,-5.8829,-5.9037,-5.894,-5.9038,-5.9039,-5.9086,-5.9083,-5.9376,-5.9109,-5.9109,-5.9108,-5.9107,0,-5.8428,-5.8538,-5.8526,-5.8601,-5.8722,-5.8699,-5.8819,-5.8832,-5.8864,-5.894,-5.8893,-5.8964,-5.8941,-5.9011,-5.9,-5.9115,-5.9132,-5.9133,-5.9129,-5.9138,-5.9138,-5.9164,-5.9151,-5.9116,-5.9114,-5.9112,-5.9111,0,-5.8651,-5.8647,-5.8775,-5.8806,-5.8816,-5.8905,-5.893,-5.9,-5.9001,-5.9097,-5.9118,-5.912,-5.92,-5.9191,-5.928,-5.9272,-5.9416,-5.9395,-5.9402,-5.9398,-5.9497,-5.9488,-5.9817,-5.9859,-5.9564,-5.9567,-5.9569,0,-5.8797,-5.888,-5.892,-5.8968,-5.8993,-5.907,-5.9115,-5.9095,-5.9144,-5.9197,-5.926,-5.9336,-5.9395,-5.9525,-5.9534,-5.9601,-5.9583,-5.9693,-5.9592,-5.9599,-5.9585,-5.9581,-5.9589,-5.9714,-5.9717,-5.972,-5.9722,0,-5.9056,-5.905,-5.9118,-5.9185,-5.924,-5.9292,-5.9339,-5.938,-5.9364,-5.9421,-5.9502,-5.9549,-5.964,-5.9715,-5.9779,-5.9798,-5.9758,-5.9753,-5.978,-5.979,-5.9792,-5.9793,-5.9458,-5.9746,-5.9744,-5.9742,-5.9741,-5.974,-5.9245,-5.9317,-5.9357,-5.9433,-5.9466,-5.9511,-5.9578,-5.9588,-5.9656,-5.973,-5.9713,-5.9805,-5.9843,-5.9924,-5.995,-6.0021,-5.9981,-6.0019,-6.0029,-6.0039,-6.0051,-5.978,-6.0032,-6.0032,-6.0031,-6.003,-6.003,0,-5.9503,-5.9526,-5.9596,-5.9664,-5.9724,-5.9681,-5.973,-5.9783,-5.9865,-5.9904,-5.9964,-6.0058,-6.0131,-6.0145,-6.0214,-6.0268,-6.0251,-6.0287,-6.0284,-6.0289,-6.0083,-6.0053,-6.03,-6.03,-6.03,-6.03,-6.0299,-6.0299,-5.9644,-5.9764,-5.9762,-5.9897,-5.9918,-6.0009,-6.0041,-6.0081,-6.0112,-6.022,-6.0281,-6.0289,-6.0318,-6.0389,-6.0454,-6.0456,-6.0484,-6.0528,-6.0523,-6.033,-6.0303,-6.0278,-6.025,-6.0534,-6.0534,-6.0723,-6.0725,-6.0726]}]]